Temperature
12 12 12 12 12 12 12 13 13 13 13 13 13 13 13 13 14 14 14 14 14 14 15 15 15 15 15 15 15 15 15 15 15 15 15 15 15 15 15 15 15 15 15
12 12 12 12 12 12 12 12 12 13 13 13 13 13 13 13 13 13 13 13 14 14 14 14 14 14 14 14 14 14 14 14 14 14 14 14 14 15 15 15 15 15 15
12 12 12 12 12 11 12 12 12 12 12 12 12 12 13 13 13 13 13 13 13 13 13 13 14 14 14 14 14 14 14 14 14 14 14 14 14 14 14 14 14 14 14
12 12 12 11 11 11 11 11 11 11 12 12 12 12 12 13 13 13 13 13 13 13 13 13 13 13 13 13 13 13 13 13 13 13 14 14 14 14 14 14 14 14 14
12 12 11 11 11 11 11 11 11 11 11 11 11 12 12 12 13 13 13 12 12 13 13 13 13 13 13 13 13 13 13 13 13 13 13 13 13 13 13 13 13 13 13
12 12 11 11 11 11 11 11 11 11 11 11 11 11 11 12 12 12 12 12 12 12 12 12 12 12 12 12 12 12 12 13 13 13 13 13 13 13 13 13 13 13 12
12 12 11 11 11 11 11 11 10 10 10 10 10 10 10 11 11 12 12 12 12 12 12 12 12 12 12 12 12 12 12 12 13 13 13 13 13 13 13 13 13 13 13
12 12 11 11 11 11 10 10 10 10 10 10 10 10 10 10 11 11 11 11 11 12 12 12 12 12 12 12 12 12 12 12 13 13 13 13 13 13 13 13 13 13 12
12 12 11 11 11 10 10 10 10 10 9 9 9 9 9 10 10 11 11 11 11 11 11 12 12 12 12 12 12 12 12 12 12 13 13 13 13 13 13 13 13 13 12
12 12 11 11 11 10 10 10 10 10 9 9 9 9 9 9 10 10 10 10 10 11 11 11 11 12 12 12 12 12 12 12 12 12 13 13 13 13 13 13 13 13 12
12 11 11 11 11 10 10 10 10 10 10 9 9 9 9 9 9 9 10 10 10 10 10 11 11 11 12 12 12 12 12 12 12 12 12 12 12 12 12 12 12 13 12
12 11 11 11 11 10 10 10 10 10 9 9 9 9 9 9 9 9 9 9 10 10 10 11 11 11 12 12 12 12 12 12 12 12 12 12 12 12 12 12 12 12 12
12 12 11 11 11 10 10 10 10 9 9 9 9 9 9 9 9 9 9 9 9 10 10 10 11 11 11 12 12 12 12 12 12 12 12 12 12 12 12 12 12 12 12
13 12 12 12 11 11 11 10 10 10 10 9 9 9 9 9 9 9 9 9 9 10 10 10 11 11 11 11 12 12 12 12 12 12 12 12 12 12 12 12 12 12 11
13 13 12 12 11 11 11 10 10 10 10 10 10 9 9 9 9 9 9 9 9 10 10 10 10 11 11 11 11 12 12 12 12 12 12 12 11 11 11 11 11 11 11
14 13 13 12 12 11 11 11 11 10 10 10 10 10 10 9 9 9 9 9 9 10 10 10 10 11 11 11 12 12 12 12 12 12 12 11 11 11 11 11 10 10 10
14 14 13 13 12 12 11 11 11 11 10 10 10 10 10 10 10 9 9 9 9 10 10 10 10 10 11 11 11 12 12 12 11 11 11 11 11 11 11 10 10 10 10
14 14 13 13 12 12 12 11 11 11 11 10 10 10 10 10 10 10 9 9 9 10 10 10 10 10 11 11 11 11 11 11 11 11 11 11 11 11 10 10 10 10 9
14 14 13 13 13 12 12 12 12 12 11 11 11 10 10 10 10 10 9 9 9 10 10 10 10 10 10 11 11 11 11 11 11 11 11 11 10 10 10 10 10 9 9
14 14 13 13 13 13 13 12 12 12 12 12 11 11 11 10 10 10 10 9 9 10 10 10 10 10 10 10 10 10 10 10 10 10 10 10 10 10 10 10 10 9 9
14 14 14 14 13 13 13 13 13 13 12 12 12 11 11 11 10 10 10 10 9 10 10 10 10 10 10 10 10 10 10 10 10 10 10 10 10 10 10 9 9 9 9
14 14 14 14 14 13 13 13 13 13 13 12 12 12 11 11 11 10 10 11 11 10 10 10 10 10 10 10 10 10 10 10 10 10 10 10 10 10 9 9 9 9 9
14 14 14 14 14 13 13 13 13 13 13 13 12 12 12 12 11 11 11 11 11 11 11 11 11 11 11 11 10 10 10 9 9 9 9 9 9 9 9 9 8 8 8
14 14 14 14 14 14 14 13 13 13 13 13 13 13 12 12 12 11 11 11 12 12 12 12 12 12 12 11 11 11 10 10 10 9 9 9 9 8 8 8 8 8 8
14 14 14 14 14 14 14 13 13 13 14 13 13 13 13 12 12 12 12 12 12 12 12 12 12 12 12 12 12 12 11 11 10 10 10 9 9 8 8 8 8 8 7
15 14 14 14 14 14 13 13 13 14 14 14 13 13 13 13 12 12 12 12 12 12 12 12 12 12 12 12 12 12 12 12 11 11 10 10 9 9 8 8 8 8 7
Wind_Speed
8 7 7 7 7 7 8 8 8 8 8 7 7 7 7 6 5 4 4 3 3 3 2 1 1 1 2 3 4 4 4 4 4 2 2 3 3 3 4 4 7 10 11
7 7 7 7 8 8 8 9 9 9 9 9 9 9 10 9 7 6 4 4 3 3 3 3 2 1 2 3 4 5 4 4 4 4 3 2 3 4 4 3 3 7 8
7 7 7 7 8 8 9 9 9 9 10 10 9 10 10 11 11 9 6 4 3 3 3 3 2 2 2 3 4 4 4 4 3 4 3 2 2 3 4 3 3 4 9
6 7 7 7 7 7 8 8 9 9 9 10 10 10 10 10 12 11 9 5 4 3 4 3 3 3 3 3 4 4 4 5 4 5 4 3 2 3 4 4 4 4 6
5 6 7 6 7 7 7 8 8 9 10 9 9 9 9 9 11 12 10 7 4 3 4 4 4 5 6 4 4 5 5 4 4 4 4 3 3 4 4 4 6 8 7
5 6 6 7 7 7 7 7 7 7 8 8 9 8 8 9 15 16 12 8 5 4 3 4 5 5 7 8 8 7 5 5 4 4 3 4 4 4 4 6 8 7 4
5 5 5 6 6 7 7 7 7 7 7 7 7 7 7 9 16 17 17 9 5 4 3 3 4 5 6 5 7 8 6 5 3 3 4 4 4 5 6 7 7 6 6
6 5 5 5 6 7 7 7 7 6 6 5 6 6 6 10 17 17 18 7 4 6 5 5 5 5 5 6 6 6 7 6 4 4 4 3 3 4 6 7 9 11 10
6 5 6 6 6 7 7 7 6 5 5 4 4 5 6 8 15 17 16 6 4 6 6 7 6 6 7 8 8 8 7 6 9 11 10 9 9 10 11 11 11 12 8
6 5 5 5 6 6 6 6 5 5 5 4 4 4 6 6 11 15 15 6 5 4 4 6 9 7 7 8 7 6 6 4 5 6 6 7 8 10 12 9 9 11 8
5 4 5 5 4 5 5 5 4 4 4 4 3 3 4 6 9 13 13 6 6 4 4 4 4 6 6 7 7 5 5 4 5 6 6 7 7 7 6 7 7 7 6
3 3 3 4 5 4 3 3 4 5 5 5 5 4 4 5 8 11 12 10 9 5 5 4 4 6 7 7 6 6 6 6 5 6 7 7 7 7 8 8 10 10 9
3 3 1 2 2 1 3 4 4 5 5 5 5 5 4 5 8 14 13 10 10 6 4 6 6 6 5 6 7 7 5 4 5 6 7 6 6 7 7 7 9 13 15
3 2 2 1 2 2 2 4 4 5 5 6 6 6 5 5 7 8 8 6 6 4 3 4 5 6 6 7 5 4 3 4 5 6 6 5 5 6 6 6 6 7 8
3 4 3 2 1 1 4 3 4 4 3 3 4 5 5 5 6 9 6 6 5 5 3 1 1 2 4 4 3 4 4 5 5 4 5 5 5 5 4 4 5 6 6
4 3 2 3 2 1 3 3 1 1 3 2 1 3 2 4 7 8 9 10 10 9 4 3 4 4 4 4 4 4 4 5 5 5 5 5 5 5 4 4 5 6 7
3 3 3 2 2 2 2 3 3 3 3 3 3 2 2 4 6 7 8 9 10 8 6 5 5 4 4 4 4 4 4 4 4 5 5 4 5 5 4 4 4 5 6
4 3 3 2 3 3 2 1 1 3 4 4 5 6 5 3 5 7 7 4 4 5 4 4 4 3 3 3 3 3 4 4 4 4 4 4 4 4 4 4 4 4 5
5 4 5 3 3 4 3 3 3 2 3 3 5 4 6 5 5 7 6 2 3 3 3 3 2 2 2 2 2 3 4 4 4 5 5 4 4 4 3 4 5 5 3
3 2 3 3 4 4 5 5 4 3 3 2 4 4 3 4 3 2 1 2 3 3 3 3 2 2 2 2 2 3 4 4 4 4 4 4 3 4 4 5 5 3 2
5 6 8 5 5 5 4 4 4 4 3 3 4 5 4 0 2 3 2 2 2 3 3 3 3 2 2 1 1 2 4 4 4 4 4 3 3 3 3 3 3 3 4
5 5 6 6 6 6 4 4 4 4 4 4 5 5 7 3 3 4 4 4 3 2 3 2 2 2 1 1 1 0 2 3 4 4 4 4 4 3 2 2 2 3 4
5 5 5 6 6 6 5 4 4 4 5 5 5 7 6 6 5 5 5 5 5 4 3 2 2 3 1 1 1 1 0 2 3 4 4 4 3 3 3 3 3 3 4
6 7 6 5 5 5 5 6 6 6 6 5 5 6 7 7 6 6 6 6 6 5 5 5 4 6 7 4 2 2 1 2 4 4 3 3 3 3 3 3 3 4 3
7 7 6 5 5 5 5 6 6 6 6 6 6 5 5 6 6 7 7 7 8 7 7 8 7 7 8 9 8 6 5 5 5 3 3 2 2 3 3 3 3 3 4
7 7 6 6 5 5 5 5 5 6 5 5 6 6 6 6 6 7 7 7 7 7 6 7 11 12 11 11 12 11 11 9 7 4 2 1 3 4 4 3 4 3 3
Wind_Direction
359 357 5 3 359 12 9 4 8 7 12 27 22 26 34 41 46 49 50 54 63 59 43 37 225 177 182 180 178 179 181 169 169 163 162 157 156 149 148 171 154 160 179
2 1 12 14 11 18 17 11 17 16 14 24 29 30 32 29 24 27 34 50 60 63 54 46 38 126 165 162 164 168 168 163 156 154 152 158 164 153 147 150 149 157 150
9 10 15 21 18 20 18 10 18 22 19 21 33 35 32 25 16 10 13 31 56 69 77 76 62 82 133 149 155 158 157 153 136 142 150 152 147 145 137 141 132 115 111
18 18 12 18 19 18 21 14 17 22 27 22 31 34 30 27 16 4 356 10 39 73 80 82 80 91 108 125 135 142 145 146 144 146 146 149 151 153 142 141 122 102 104
26 27 12 14 24 16 24 21 24 27 30 24 28 31 28 25 14 4 351 1 16 56 90 94 89 97 113 117 123 128 133 138 145 150 152 151 157 156 162 150 129 110 99
42 40 20 18 20 16 24 22 25 38 36 29 23 25 32 22 5 8 4 345 357 30 72 96 104 97 100 105 112 113 122 136 150 153 159 161 171 169 150 140 136 133 119
50 47 34 24 20 16 19 23 23 33 43 39 20 17 30 20 8 4 357 342 359 22 49 87 105 106 102 99 98 99 90 86 113 150 154 162 162 165 151 151 151 137 120
55 39 36 36 27 20 16 24 28 22 29 42 23 13 18 22 12 5 353 352 26 29 38 56 90 98 99 106 101 89 71 54 72 105 115 115 122 146 151 145 129 112 107
60 42 33 33 34 24 18 18 27 17 11 28 25 16 23 22 14 10 1 347 33 50 46 47 67 85 93 101 99 94 86 74 72 90 100 103 99 104 121 122 126 128 124
54 48 37 36 45 32 19 12 14 11 359 5 24 28 35 27 20 16 9 2 14 39 59 70 63 72 80 92 99 95 89 84 89 94 93 95 92 99 119 131 138 136 131
59 46 35 20 53 66 20 1 7 358 343 349 10 38 54 40 21 18 16 13 357 14 51 67 58 61 74 81 91 96 92 83 77 78 86 82 78 81 89 100 111 132 130
95 60 46 41 22 34 25 355 352 349 351 1 10 27 43 46 31 11 13 17 9 26 44 56 59 58 76 89 86 91 88 81 78 83 80 76 76 77 81 84 89 85 88
159 157 184 151 126 40 358 7 11 8 8 7 10 12 18 35 18 11 8 13 19 38 56 54 60 62 75 87 91 97 95 88 93 94 93 89 87 88 84 80 75 73 67
176 181 197 162 112 111 59 31 35 24 13 5 8 7 7 27 15 1 354 359 6 28 65 68 65 66 77 92 95 94 92 102 111 106 101 98 95 95 98 102 98 89 76
188 199 190 149 117 100 108 66 59 83 73 26 2 356 7 5 353 348 357 360 358 5 356 35 71 80 85 91 94 93 95 101 104 103 103 100 94 89 91 97 106 101 100
220 188 176 171 152 153 150 138 58 120 156 125 36 3 36 17 341 351 2 7 8 7 32 68 70 65 70 84 99 99 97 102 109 108 102 104 108 107 99 87 97 112 117
251 184 169 162 154 207 210 174 181 206 236 255 261 294 340 337 341 347 355 1 14 34 55 61 65 64 67 75 88 100 106 109 108 109 112 112 110 107 104 102 102 112 122
247 155 151 175 200 218 216 238 198 176 192 214 227 242 250 288 322 334 341 353 43 55 60 66 69 67 70 78 87 98 106 108 107 110 110 107 108 111 112 113 107 113 128
241 185 180 210 204 205 197 216 233 222 204 172 158 206 234 244 285 308 331 67 88 86 82 77 80 86 89 91 96 104 106 107 106 101 99 100 104 109 111 108 105 103 115
248 170 173 209 232 217 205 211 216 215 218 175 148 156 183 202 208 209 125 86 103 106 108 100 84 86 91 90 86 100 107 107 109 107 109 103 99 106 118 125 139 159 180
222 199 192 212 245 245 222 217 210 195 200 176 139 140 145 257 157 150 149 148 137 136 124 118 109 88 81 89 101 127 133 130 127 125 124 119 112 106 118 133 141 146 133
237 212 186 201 222 236 232 228 219 200 200 184 156 161 171 207 239 182 168 174 168 140 133 142 151 136 114 65 27 88 136 139 142 139 136 133 127 133 137 141 151 146 141
242 257 221 209 212 210 207 231 242 219 211 210 182 167 180 206 214 187 175 171 163 165 161 170 170 157 177 254 315 6 49 167 154 142 140 146 155 169 173 178 174 166 174
215 237 244 230 220 212 204 212 225 220 210 210 206 186 183 191 191 185 177 169 169 175 176 183 199 194 189 190 207 257 327 87 125 129 143 166 179 185 179 173 176 199 182
211 225 228 226 228 227 225 224 225 221 209 203 204 200 191 185 185 182 177 173 173 183 187 189 197 203 198 189 194 196 175 153 131 103 160 170 197 189 183 181 187 208 180
206 221 223 217 218 225 231 236 236 231 221 208 202 199 194 191 188 184 179 177 179 185 187 191 198 199 201 204 206 198 184 181 182 180 160 254 221 200 192 200 204 206 195
Height
1519 1517 1514 1511 1508 1506 1503 1501 1499 1497 1496 1495 1493 1493 1492 1491 1491 1490 1490 1490 1491 1492 1492 1494 1495 1497 1499 1502 1504 1507 1510 1514 1517 1520 1523 1526 1529 1532 1535 1538 1541 1544 1547
1521 1519 1516 1513 1511 1509 1506 1504 1502 1500 1499 1497 1496 1495 1493 1492 1492 1491 1491 1491 1491 1491 1491 1491 1492 1493 1495 1497 1500 1502 1505 1509 1512 1515 1519 1522 1526 1529 1532 1535 1538 1541 1543
1523 1521 1518 1515 1513 1511 1509 1507 1505 1503 1501 1500 1498 1496 1494 1493 1493 1492 1492 1491 1491 1491 1490 1490 1490 1491 1492 1494 1496 1499 1502 1505 1508 1512 1515 1519 1522 1526 1529 1532 1535 1538 1541
1525 1522 1520 1518 1515 1513 1511 1509 1507 1505 1503 1501 1499 1497 1496 1495 1494 1493 1492 1492 1492 1491 1490 1490 1490 1490 1491 1492 1494 1496 1499 1502 1505 1509 1513 1516 1519 1523 1526 1529 1533 1536 1538
1526 1524 1521 1520 1517 1515 1513 1511 1509 1507 1505 1503 1501 1499 1497 1496 1494 1493 1493 1492 1492 1492 1491 1491 1491 1490 1491 1492 1493 1495 1497 1500 1503 1506 1510 1513 1517 1520 1523 1527 1531 1534 1537
1528 1525 1523 1521 1519 1517 1515 1513 1511 1508 1506 1504 1501 1500 1498 1496 1495 1494 1493 1493 1492 1492 1492 1492 1492 1491 1492 1492 1494 1495 1498 1500 1503 1505 1508 1511 1515 1518 1521 1524 1528 1532 1536
1529 1527 1524 1522 1520 1518 1516 1514 1512 1510 1507 1505 1502 1500 1499 1497 1495 1494 1493 1493 1493 1493 1493 1493 1492 1493 1493 1494 1495 1497 1499 1501 1504 1506 1508 1510 1513 1516 1519 1522 1526 1530 1533
1529 1528 1526 1523 1521 1519 1517 1515 1513 1511 1509 1506 1504 1502 1500 1498 1496 1495 1494 1493 1493 1493 1493 1493 1493 1494 1495 1496 1497 1499 1501 1503 1504 1506 1508 1510 1512 1515 1518 1521 1525 1529 1533
1530 1528 1526 1524 1522 1520 1518 1516 1514 1512 1510 1508 1506 1504 1501 1499 1497 1495 1494 1494 1494 1494 1493 1494 1494 1495 1496 1498 1499 1501 1503 1504 1506 1507 1509 1510 1512 1515 1517 1520 1524 1528 1532
1530 1529 1527 1525 1523 1521 1519 1517 1515 1513 1512 1510 1508 1506 1503 1500 1498 1496 1495 1494 1494 1494 1494 1494 1495 1496 1498 1500 1501 1503 1505 1506 1508 1509 1511 1512 1514 1516 1519 1522 1525 1528 1532
1530 1529 1528 1526 1524 1522 1520 1518 1516 1515 1513 1511 1510 1507 1505 1502 1499 1497 1495 1495 1495 1495 1495 1496 1496 1498 1499 1501 1503 1505 1507 1509 1510 1511 1513 1515 1517 1518 1521 1524 1527 1531 1533
1531 1530 1528 1527 1525 1523 1521 1519 1518 1516 1514 1513 1511 1509 1506 1503 1501 1498 1497 1496 1496 1496 1496 1497 1497 1499 1501 1503 1505 1507 1509 1511 1513 1514 1516 1518 1520 1522 1524 1526 1529 1532 1535
1531 1530 1529 1528 1526 1524 1522 1521 1519 1517 1515 1513 1512 1510 1508 1505 1502 1500 1498 1497 1497 1497 1498 1498 1499 1501 1503 1505 1508 1510 1512 1514 1516 1517 1519 1521 1523 1525 1527 1529 1532 1534 1536
1531 1530 1529 1529 1527 1526 1524 1522 1519 1517 1515 1513 1511 1510 1508 1506 1503 1501 1500 1499 1499 1499 1500 1500 1502 1503 1505 1508 1510 1512 1514 1516 1518 1520 1522 1524 1526 1528 1530 1532 1533 1535 1537
1531 1530 1529 1528 1527 1526 1525 1523 1521 1518 1516 1514 1512 1510 1508 1507 1505 1503 1502 1501 1501 1502 1502 1503 1505 1507 1508 1510 1512 1515 1517 1519 1521 1523 1525 1527 1529 1530 1532 1534 1535 1536 1537
1530 1530 1529 1528 1527 1526 1525 1523 1522 1520 1518 1516 1514 1512 1510 1508 1506 1505 1504 1504 1504 1505 1505 1506 1508 1509 1511 1512 1514 1517 1519 1521 1523 1525 1527 1529 1530 1532 1533 1535 1536 1537 1537
1529 1528 1528 1527 1527 1526 1525 1524 1522 1521 1520 1518 1516 1514 1512 1510 1509 1508 1507 1507 1507 1507 1508 1509 1510 1511 1513 1515 1517 1519 1521 1523 1525 1527 1528 1530 1531 1533 1534 1535 1536 1537 1538
1527 1527 1526 1525 1525 1525 1525 1524 1523 1522 1520 1519 1517 1516 1514 1513 1512 1511 1510 1510 1510 1510 1511 1511 1512 1514 1515 1517 1519 1521 1523 1524 1526 1528 1529 1531 1532 1533 1534 1535 1536 1537 1538
1524 1524 1524 1524 1524 1524 1523 1523 1522 1522 1521 1519 1518 1517 1516 1515 1514 1513 1513 1513 1512 1512 1513 1514 1515 1516 1517 1519 1521 1522 1524 1525 1527 1528 1530 1531 1532 1533 1534 1535 1535 1536 1537
1521 1521 1521 1521 1522 1522 1522 1521 1521 1521 1521 1520 1518 1517 1516 1515 1515 1514 1514 1514 1514 1515 1515 1516 1517 1518 1519 1520 1522 1523 1525 1526 1527 1528 1529 1530 1531 1532 1533 1533 1534 1534 1535
1517 1518 1518 1519 1519 1519 1520 1520 1520 1520 1520 1519 1518 1517 1516 1515 1515 1514 1514 1514 1515 1515 1516 1517 1518 1519 1520 1521 1522 1524 1525 1526 1527 1527 1528 1529 1530 1530 1531 1531 1532 1533 1534
1514 1515 1515 1515 1515 1516 1517 1518 1518 1518 1518 1517 1517 1516 1516 1515 1514 1514 1514 1514 1514 1514 1515 1516 1517 1518 1519 1520 1522 1523 1524 1524 1525 1526 1526 1527 1527 1528 1529 1529 1530 1531 1532
1509 1511 1512 1512 1513 1513 1514 1514 1515 1515 1515 1515 1515 1514 1514 1514 1513 1513 1513 1513 1513 1513 1513 1514 1515 1516 1517 1518 1519 1520 1521 1522 1523 1523 1524 1524 1525 1525 1526 1527 1528 1529 1530
1504 1505 1507 1508 1509 1510 1510 1510 1511 1511 1512 1512 1513 1513 1512 1512 1512 1512 1511 1511 1511 1511 1511 1512 1512 1513 1514 1515 1516 1517 1518 1518 1519 1520 1521 1522 1522 1523 1524 1525 1526 1527 1528
1498 1500 1501 1502 1504 1505 1506 1506 1507 1508 1508 1509 1509 1510 1510 1510 1510 1510 1509 1509 1509 1509 1509 1510 1510 1511 1511 1512 1512 1513 1514 1515 1515 1516 1517 1518 1519 1520 1521 1522 1523 1524 1525
1492 1493 1495 1496 1498 1499 1500 1501 1503 1504 1504 1505 1505 1506 1507 1507 1507 1507 1507 1507 1507 1507 1507 1507 1507 1508 1508 1509 1509 1510 1510 1511 1512 1512 1513 1514 1515 1516 1517 1519 1520 1521 1522